www.pogodaiklimat.ru
ПОГОДА в Бремертоне
Время
и дата
06:56 06.02
07:18 06.02
07:47 06.02
07:56 06.02
08:56 06.02
09:56 06.02
10:56 06.02
11:56 06.02
12:56 06.02
13:29 06.02
13:56 06.02
14:56 06.02
15:09 06.02
15:18 06.02
15:56 06.02
16:29 06.02
16:56 06.02
17:11 06.02
17:34 06.02
17:56 06.02
18:04 06.02
18:18 06.02
18:56 06.02
19:56 06.02
20:56 06.02
21:56 06.02
22:56 06.02
23:56 06.02
00:56 07.02
01:56 07.02
02:56 07.02
03:56 07.02
04:56 07.02
05:56 07.02
06:56 07.02
07:56 07.02
08:56 07.02
09:56 07.02
10:56 07.02
11:04 07.02
11:56 07.02
12:56 07.02
13:56 07.02
14:56 07.02
15:56 07.02
16:56 07.02
17:56 07.02
18:56 07.02
Ветер
(напр.,м/с)
Видим. Явления Облачность Т
(С)
Тd
(С)
f
(%)
Тe
(С)
Тes
(С)
Комфортность P
(гПа)
Po
(гПа)
Тmin
(С)
Tmax
(С)
R
(мм)
R24
(мм)
S
(см)
Ю 5
{10}
16 км 10/10 90 м +5.6 +5.6 100 +1 +1 1028.4 1011.4
Ю 6
{10}
16 км 10/10 210 м +6.0 +6.0 100 +1 +1 1011.4
Ю 6 16 км 10/10 120 м +6.0 +6.0 100 +1 +1 1011.8
Ю 6
{9}
16 км 10/10 120 м +5.6 +5.6 100 0 0 1028.8 1011.8
Ю 6 16 км 10/10 120 м +6.1 +6.1 100 +1 +1 1029.2 1012.1
Ю 7
{8}
16 км слабый дождь 10/10 120 m
[Ns]
+6.7 +6.7 100 +2 +2 1029.4 1012.4 +5.0 +6.7
Ю 6 16 км слабый дождь 10/10 120 m
[Ns]
+6.1 +6.1 100 +1 +1 1029.7 1012.8
Ю 7
{9}
16 км слабый дождь 10/10 120 m
[Ns]
+6.1 +6.1 100 +1 +1 1029.5 1012.4
Ю 5 16 км слабый дождь 10/10 120 m
[Ns]
+7.2 +7.2 100 +3 +3 1029.0 1012.1 2.5
Ю 6
{9}
16 км слабый дождь 10/10 180 m
[Ns]
+8.0 +8.0 100 +4 +4 1011.8
Ю 5 16 км слабый дождь 10/10 180 m
[Ns]
+7.2 +7.2 100 +3 +3 1028.7 1011.8
Ю 6
{10}
16 км 10/10 270 м +8.3 +7.8 97 +4 +4 1028.6 1011.8
Ю 6 16 км 8/8 330 м +9.0 +8.0 93 +5 +5 1011.8
ЮЗ 7
{10}
16 км 8/8 420 м +9.0 +8.0 93 +5 +5 1011.8
Ю 6
{8}
16 км 10/10 360 м +7.8 +7.2 96 +3 +3 1028.2 1011.4 +6.1 +8.9 2.8
ЮЗ 5 16 км слабый дождь 10/10 240 m
[Ns]
+8.0 +7.0 93 +4 +4 1011.4
Ю 5 16 км 10/10 240 м +7.8 +7.2 96 +4 +4 1028.2 1011.4
Ю 6 16 км 10/10 240 м +7.0 +7.0 100 +2 +2 1011.4
Ю 4 16 км 8/8 780 м +7.0 +7.0 100 +3 +3 1011.1
Ю 5 16 км 8/8 660 м +7.2 +6.7 97 +3 +3 1028.0 1011.1
Ю 7
{9}
16 км 10/10 240 м +7.0 +7.0 100 +2 +2 1010.8
Ю 6 16 км слабый дождь 10/10 240 m
[Ns]
+7.0 +7.0 100 +2 +2 1010.8
Ю 6 16 км слабый дождь 10/10 180 m
[Ns]
+6.7 +6.7 100 +2 +2 1027.4 1010.4
Ю 6
{8}
16 км 10/10 180 м +6.7 +6.7 100 +2 +2 1026.8 1009.8
Ю 4 16 км 10/10 180 м +6.7 +6.7 100 +3 +3 1026.4 1009.4
Ю 5 16 км слабый дождь 10/10 240 m
[Ns]
+7.0 1026.2 1009.4 +6.7 +7.8
ЮЗ 4 14 км слабый дождь 10/10 180 m
[Ns]
+6.7 +6.7 100 +3 +3 1026.2 1009.4
Ю 5
{8}
16 км слабый дождь 10/10 180 m
[Ns]
+6.7 +6.7 100 +2 +2 1026.0 1009.1
Ю 5 16 км слабый дождь 10/10 180 m
[Ns]
+6.7 +6.7 100 +2 +2 1025.5 1008.8 3.6
Ю 4
{7}
16 км слабый дождь 10/10 240 m
[Ns]
+6.7 +6.7 100 +3 +3 1024.7 1007.8
Ю 5 16 км слабый дождь 10/10 270 m
[Ns]
+6.7 +6.1 96 +2 +2 1023.8 1007.1
Ю 4 10 км слабый дождь, дымка 10/10 270 m
[Ns]
+6.7 +6.1 96 +3 +3 1023.3 1006.4 +6.1 +6.7 7.6 10.4
Ю 5 16 км слабый дождь 10/10 210 m
[Ns]
+6.7 +6.1 96 +2 +2 1022.5 1005.8
Ю 5
{10}
16 км слабый дождь 10/10 210 m
[Ns]
1004.8
Ю 7
{10}
16 км слабый дождь 10/10 210 m
[Ns]
+6.1 +6.1 100 +1 +1 1020.7 1003.8 6.4
ЮЗ 7
{11}
14 км слабый дождь 10/10 210 m
[Ns]
+6.1 +6.1 100 +1 +1 1020.2 1003.4
Ю 8
{12}
16 км слабый дождь 10/10 210 m
[Ns]
+6.1 +6.1 100 0 0 1019.6 1002.8
Ю 10
{15}
16 км слабый дождь 10/10 210 m
[Ns]
+6.7 +6.1 96 +1 +1 1019.6 1002.8 +6.1 +6.7 12.2
ЮЗ 8
{12}
13 км слабый дождь 10/10 210 m
[Ns]
+6.7 +6.7 100 +1 +1 1019.9 1003.1
Ю 9
{13}
16 км слабый дождь 10/10 150 m
[Ns]
+7.0 +7.0 100 +1 +1 1002.8
Ю 7
{11}
10 км дождь, дымка 10/10 150 m
[Ns]
+6.7 +6.7 100 +2 +2 1019.6 1002.8
Ю 7
{9}
16 км 8/8 210 м +8.3 +7.8 97 +4 +4 1019.4 1002.8 3.6
Ю 6
{10}
16 км 5/5 210 м +9.4 +8.9 97 +6 +6 1019.5 1002.8
ЮЗ 7 16 км ясно +8.9 +5.6 80 +5 +6 1020.5 1003.8
ЮЗ 6 16 км ясно +8.3 +5.0 80 +4 +5 1020.9 1004.1 +6.7 +10.6 3.6
ЮЗ 7 16 км ясно +7.2 +4.4 82 +3 +3 1021.8 1005.1
ЮЗ 5 16 км ясно +5.6 +3.9 89 +1 +1 1005.8
ЮЗ 6 16 км ясно +4.4 +2.8 89 -1 -1 1023.1 1006.1
Местоположение метеостанции Bremerton National Airport: широта 47.5000 долгота -122.7500 высота над уровнем моря 134 м.
В архиве по умолчанию представлена погода в Бремертоне за последние 1-2 суток. Обновление информации о фактической погоде в базе происходит ежечасно! Архивные данные за месяц целиком и за предыдущие месяцы Вы можете получить, выбрав интересующий диапазон дат из раскрывающегося списка и нажав кнопку "Ввод!".
Внимание! Архив погоды МЕТАР в базе сайта по станциям, не включенным в климатический монитор, хранится не более 60 дней. Нет смысла пытаться выбрать более раннюю дату.
*Определитесь, кто Вы:
Внимание! Время в таблицах - местное (без учета летнего времени). Для получения всемирного времени необходимо вычесть поправку, которая равна -8 ч.
Смотрите также архив погоды в соседних городах и на ближайших метеорологических станциях:
Партнеры нашего сайта:      
Пояснения к столбцам:
  • Ветер - указаны скорость ветра в м/с - средняя за 10 мин, порывы в срок и между сроками (в фигурных скобках) и направление, откуда дует ветер: С - северный,
  • СВ - северо-восточный, В - восточный, ЮВ - юго-восточный, Ю - южный, ЮЗ - юго-западный, З - западный, СЗ - северо-западный.
  • Видимость - горизонтальная дальность видимости в метрах или километрах. При видимости от 1 до 10 км при отсутствии осадков обычно наблюдается дымка, при ухудшении видимости до 1 км и менее - туман. В сухую погоду видимость может ухудшаться дымом, пылью или мглою.
  • Явления - указаны атмосферные явления, наблюдавшиеся в срок или в последний час перед сроком; фигурными скобками обозначены явления, наблюдавшиеся между сроками (за 1-3 часа до срока); квадратными скобками обозначены град или гололедные отложения с указанием их диаметра в мм.
  • Облачность - указаны через наклонную черту общая и нижняя облачность в баллах и высота нижней границы облаков в метрах; квадратными скобками обозначены формы облаков: Ci - перистые, Cs - перисто-слоистые, Cc - перисто-кучевые, Ac - высококучевые, As - высокослоистые, Sc - слоисто-кучевые, Ns - слоисто-дождевые, Cu - кучевые, Cb - кучево-дождевые. Подробнее классификацию облаков см. в Атласе облаков (PDF).
  • T - Температура воздуха - температура, измеренная на высоте 2 м над землей.
  • Td - Температура точки росы - температура, при понижении до которой содержащийся в воздухе водяной пар достигнет насыщения.
  • f - Относительная влажность воздуха - влажноcть воздуха, измеренная на высоте 2 м над землей.
  • Te - Эффективная температура - температура, которую ощущает одетый по сезону человек в тени. Характеристика душности погоды. При расчете учитывается влияние влажности воздуха и скорости ветра на теплоощущения человека.
  • Tes - Эффективная температура на солнце - температура, которую ощущает человек, с поправкой на солнечный нагрев. Характеристика знойности погоды. Зависит от высоты солнца над горизонтом, облачности и скорости ветра. Ночью, в пасмурную погоду, а также при ветре 12 м/с и более поправка равна нулю.
  • P - Атмосферное давление - приведенное к уровню моря атмосферное давление.
  • Po - Атмосферное давление - измеренное на уровне метеостанции атмосферное давление.
  • Tmin - Минимальная температура - минимум температуры воздуха на высоте 2 м над землей.
  • Tmax - Максимальная температура - максимум температуры воздуха на высоте 2 м над землей.
  • R - Количество осадков - Количество выпавших осадков за период времени, мм. При наведении курсора мыши на число - период времени, за который выпало указанное количество осадков.
  • R24 - Количество осадков - Количество выпавших осадков за 24 часа, мм.
  • S - Снежный покров - Высота снежного покрова, см. При наведении курсора мыши на число - состояние снежного покрова и степень покрытия местности в баллах.